Content
SEND FEEDBACK

Daily
Averages
Monthly
Summary
United States of America

SAN GREGORIO, CALIFORNIA


Home > North America > United States > California
Elevation: 553 feet     Latitude: 37 18N     Longitude: 122 20W

WEATHER
 
SELECT A DAY
Number of Records: 124,920;   Date Range: 1/1/95 - 8/12/14
 
SHARE

PRINT THIS DATA

[ ← Previous Day ]
WEATHER ALMANAC - FEBRUARY 13, 2013
[ Next Day → ]
[ °C ]   °F
Weather ElementAverageHighLow
Temperature46.4 °F60.8 °F (3:47 pm)41 °F (2:35 am)
Dewpoint40.5 °F48.2 °F (12:55 pm)37.4 °F (12:35 am)
Humidity80.7 %93 % (5:55 am)51 % (4:50 pm)
Barometer30.30 in30.35 in (12:35 am)30.23 in (5:50 pm)
Wind Speed1.4 mph8.1 mph (4:50 pm)
Weather ElementAverage
Visibility9.6 mi
Wind DirectionNE (50.5 °)

Weather ElementTotal
Precipitation---
Heating Degree Days14.1 (Base 65)
Growing Degree Days0.9 (Base 50)
Averaged from 41 records on February 13, 2013
WEATHER CONDITIONS BREAKOUT
WIND DIRECTION BREAKOUT
WEATHER BY HOUR - FEBRUARY 13, 2013
[ °C ]   °F
Local TimeTemperatureDewpointHumidityBarometerVisibilityWind DirectionWind SpeedGust SpeedPrecipitationEventsConditions
12:35 AM44.6 °F37.4 °F76 %30.35 in10.0 miCalmClear
12:55 AM44.6 °F37.4 °F76 %30.35 in10.0 miCalmClear
1:15 AM44.6 °F37.4 °F76 %30.35 in10.0 miCalmClear
1:35 AM44.6 °F37.4 °F76 %30.35 in10.0 miSW (220°)3.5 mphClear
1:55 AM44.6 °F39.2 °F81 %30.35 in10.0 miCalmClear
2:15 AM42.8 °F37.4 °F81 %30.35 in10.0 miCalmClear
2:35 AM41.0 °F37.4 °F87 %30.35 in10.0 miCalmClear
2:55 AM41.0 °F37.4 °F87 %30.34 in10.0 miCalmClear
3:15 AM41.0 °F37.4 °F87 %30.34 in10.0 miCalmClear
3:35 AM41.0 °F37.4 °F87 %30.33 in10.0 miCalmClear
3:55 AM41.0 °F37.4 °F87 %30.33 in10.0 miCalmClear
4:15 AM41.0 °F37.4 °F87 %30.33 in10.0 miNorthClear
4:35 AM41.0 °F37.4 °F87 %30.33 in10.0 miCalmClear
4:55 AM41.0 °F37.4 °F87 %30.33 in10.0 miCalmClear
5:15 AM41.0 °F37.4 °F87 %30.33 in10.0 miCalmClear
5:35 AM41.0 °F37.4 °F87 %30.33 in10.0 miCalmClear
5:55 AM41.0 °F39.2 °F93 %30.33 in10.0 miCalmClear
6:15 AM41.0 °F37.4 °F87 %30.33 in10.0 miCalmClear
6:35 AM41.0 °F37.4 °F87 %30.33 in10.0 miCalmClear
6:50 AM41.0 °F39.2 °F93 %30.33 in10.0 miCalmPartly Cloudy
6:55 AM41.0 °F39.2 °F93 %30.34 in10.0 miCalmScattered Clouds
7:57 AM44.6 °F39.2 °F81 %30.35 in6.0 miCalmHaze
8:49 AM48.2 °F42.8 °F82 %30.35 in6.0 miCalmHaze
12:55 PM57.2 °F48.2 °F72 %30.30 in7.0 miNNE (20°)4.6 mphClear
2:47 PM59.0 °F44.6 °F59 %30.26 in8.0 miNNE (20°)6.9 mphClear
2:53 PM55.4 °F48.2 °F77 %30.28 in5.0 miENE (60°)6.9 mphHaze
3:47 PM60.8 °F46.4 °F59 %30.25 in10.0 miNorth (10°)5.8 mphClear
4:50 PM59.0 °F41.0 °F51 %30.24 in10.0 miNNW (340°)8.1 mphClear
5:50 PM57.2 °F42.8 °F59 %30.23 in10.0 miNNW (330°)4.6 mphClear
6:47 PM53.6 °F44.6 °F72 %30.23 in10.0 miCalmClear
7:49 PM50.0 °F46.4 °F87 %30.24 in10.0 miNW (320°)3.5 mphClear
8:55 PM50.0 °F44.6 °F82 %30.25 in10.0 miWNW (300°)3.5 mphClear
9:15 PM50.0 °F44.6 °F82 %30.25 in10.0 miCalmClear
9:35 PM48.2 °F44.6 °F87 %30.25 in10.0 miCalmClear
9:55 PM48.2 °F44.6 °F87 %30.25 in10.0 miCalmClear
10:15 PM48.2 °F41.0 °F76 %30.25 in10.0 miCalmClear
10:35 PM46.4 °F41.0 °F81 %30.25 in10.0 miSW (220°)3.5 mphClear
10:55 PM46.4 °F41.0 °F81 %30.25 in10.0 miSW (220°)3.5 mphClear
11:15 PM46.4 °F41.0 °F81 %30.24 in10.0 miCalmClear
11:35 PM46.4 °F41.0 °F81 %30.24 in10.0 miNorth (10°)3.5 mphClear
11:55 PM46.4 °F41.0 °F81 %30.24 in10.0 miCalmClear
Hourly data recorded from KSQL, located miles away from San Gregorio, California







STORIES FROM OUR PARTNERS